GW1125 Weather Reports


time (UTC)temp
C
wind
direction
speed
KPH
gust
KPH
rain 1hr
cm
rain 24hr
cm
rain mn
cm
humidity
%
barometer
mb
20260903212721 18 109 0.0 0.0 0.00 0.69 0.23 66 1008.5
20260903211710 17 105 0.0 0.0 0.00 0.69 0.23 71 1008.7
20260903210709 17 103 0.0 0.0 0.00 0.71 0.23 73 1008.5
20260903205651 17 99 1.6 1.6 0.00 0.76 0.23 71 1008.3
20260903204630 18 101 0.0 0.0 0.00 0.76 0.23 69 1008.3
20260903203625 17 178 3.2 4.8 0.00 0.76 0.23 67 1008.2
20260903202622 17 112 0.0 0.0 0.00 0.76 0.23 72 1008.2
20260903201558 18 229 4.8 4.8 0.00 0.76 0.23 64 1008.2
20260903200557 18 103 0.0 0.0 0.00 0.76 0.23 64 1008.3
20260903195526 18 110 0.0 0.0 0.00 0.76 0.23 65 1008.4
20260903194524 18 103 0.0 0.0 0.00 0.76 0.23 63 1008.2
20260903193455 17 97 1.6 3.2 0.00 0.79 0.23 66 1008.4
20260903192431 16 117 0.0 0.0 0.00 0.79 0.23 69 1008.4
20260903191421 16 113 0.0 0.0 0.00 0.79 0.23 76 1008.4
20260903190358 16 111 0.0 0.0 0.00 0.79 0.23 71 1008.3
20260903185335 16 126 1.6 1.6 0.00 0.79 0.23 71 1008.4
20260903184314 16 122 0.0 1.6 0.00 0.79 0.23 71 1008.4
20260903183258 16 119 0.0 0.0 0.00 0.79 0.23 79 1008.2
20260903182257 16 108 0.0 0.0 0.00 0.79 0.23 80 1008.2
20260903181248 16 117 0.0 0.0 0.00 0.79 0.23 81 1008.4
20260903180236 15 109 0.0 0.0 0.00 0.79 0.23 86 1008.3
20260903175227 15 109 0.0 0.0 0.00 0.79 0.23 86 1008.3
20260903174214 15 110 0.0 0.0 0.00 0.79 0.23 87 1008.2
20260903173201 14 110 0.0 0.0 0.00 0.79 0.23 89 1008.2
20260903172159 13 111 0.0 0.0 0.00 0.79 0.23 91 1008.3
20260903171146 13 111 0.0 0.0 0.00 0.79 0.23 91 1008.1
20260903170134 13 111 0.0 0.0 0.00 0.79 0.23 93 1008.2
20260903165105 13 111 0.0 0.0 0.00 0.79 0.23 94 1008.0
20260903164049 13 111 0.0 0.0 0.00 0.79 0.23 95 1008.2
20260903163035 12 111 0.0 0.0 0.00 0.79 0.23 96 1008.0
20260903162024 12 109 0.0 0.0 0.00 0.79 0.23 97 1007.9
20260903161007 12 109 0.0 0.0 0.00 0.79 0.23 98 1008.1
20260903155929 12 109 0.0 0.0 0.00 0.79 0.23 98 1008.1
20260903154915 12 109 0.0 0.0 0.00 0.79 0.23 99 1008.2
20260903153914 11 111 0.0 0.0 0.00 0.79 0.23 99 1008.2
20260903152858 11 106 0.0 0.0 0.03 0.79 0.23 99 1008.1
20260903151845 11 106 0.0 0.0 0.03 0.79 0.23 99 1008.0
20260903150828 11 106 0.0 0.0 0.03 0.79 0.23 99 1008.0
20260903145814 11 106 0.0 0.0 0.05 0.79 0.23 99 1007.8
20260903144746 11 106 0.0 0.0 0.08 0.79 0.23 99 1007.8
20260903143736 11 106 0.0 0.0 0.08 0.79 0.23 99 1007.9
20260903142714 11 106 0.0 0.0 0.08 0.76 0.20 99 1007.8
20260903141653 11 107 0.0 0.0 0.10 0.76 0.20 99 1007.5
20260903140644 11 103 0.0 0.0 0.10 0.76 0.20 99 1007.7
20260903135640 10 103 0.0 0.0 0.08 0.74 0.18 99 1007.8
20260903134625 10 103 0.0 0.0 0.10 0.71 0.15 99 1007.8
20260903133606 10 103 0.0 0.0 0.10 0.69 0.13 98 1007.6
20260903132557 10 103 0.0 0.0 0.10 0.69 0.13 98 1007.6
20260903131529 10 103 0.0 0.0 0.10 0.66 0.10 98 1007.3
20260903130524 10 103 0.0 0.0 0.10 0.66 0.10 98 1007.4
20260903125503 11 103 0.0 0.0 0.10 0.66 0.10 97 1007.3
20260903124448 11 110 0.0 0.0 0.05 0.61 0.05 97 1007.5
20260903123421 10 111 0.0 0.0 0.03 0.58 0.03 97 1007.4
20260903122354 10 111 0.0 0.0 0.00 0.56 0.00 96 1007.6
20260903121318 10 111 0.0 0.0 0.00 0.56 0.00 96 1007.3
20260903120250 10 111 0.0 0.0 0.00 0.56 0.00 96 1007.0
20260903115227 10 111 0.0 0.0 0.00 0.56 0.00 96 1006.9
20260903114203 10 111 0.0 0.0 0.00 0.56 0.00 96 1006.9
20260903113149 10 107 0.0 0.0 0.00 0.56 0.00 96 1006.7
20260903112148 10 107 0.0 0.0 0.00 0.56 0.00 96 1006.7
20260903111127 10 106 0.0 0.0 0.00 0.56 0.00 96 1006.9
20260903110044 10 106 0.0 0.0 0.00 0.56 0.00 96 1006.9
20260903105022 10 106 0.0 0.0 0.00 0.56 0.00 96 1006.9
20260903104021 10 106 0.0 0.0 0.00 0.56 0.00 96 1006.8
20260903103002 10 106 0.0 0.0 0.00 0.56 0.00 97 1006.8
20260903102002 10 106 0.0 0.0 0.00 0.56 0.00 96 1006.7
20260903100952 10 106 0.0 0.0 0.00 0.56 0.00 96 1007.0
20260903095925 10 106 0.0 0.0 0.00 0.56 0.00 97 1006.6
20260903094916 10 106 0.0 0.0 0.00 0.56 0.00 96 1006.8
20260903093851 10 106 0.0 0.0 0.00 0.56 0.00 96 1006.9
20260903092827 10 106 0.0 0.0 0.00 0.56 0.00 96 1006.7
20260903091823 10 106 0.0 0.0 0.00 0.56 0.00 97 1006.7
20260903090808 10 106 0.0 0.0 0.00 0.56 0.00 97 1006.7
20260903085744 10 106 0.0 0.0 0.00 0.56 0.00 97 1006.7
20260903084743 10 106 0.0 0.0 0.00 0.56 0.00 97 1006.6
20260903083742 10 106 0.0 0.0 0.00 0.56 0.00 97 1006.8
20260903082719 10 106 0.0 0.0 0.00 0.56 0.00 97 1006.6
20260903081701 10 106 0.0 0.0 0.00 0.56 0.00 97 1006.5
20260903080645 10 106 0.0 0.0 0.00 0.56 0.00 98 1006.6
20260903075631 10 106 0.0 0.0 0.00 0.56 0.56 99 1006.7
20260903074615 10 106 0.0 0.0 0.00 0.56 0.56 99 1006.6
20260903073558 10 106 0.0 0.0 0.00 0.56 0.56 99 1006.5
20260903072545 10 106 0.0 0.0 0.00 0.56 0.56 99 1006.5
20260903071533 10 106 0.0 0.0 0.00 0.56 0.56 99 1006.5
20260903070517 10 106 0.0 0.0 0.00 0.56 0.56 99 1006.5
20260903065508 10 106 0.0 0.0 0.00 0.56 0.56 99 1006.4
20260903064502 10 106 0.0 0.0 0.00 0.56 0.56 99 1006.4
20260903063500 11 106 0.0 0.0 0.00 0.56 0.56 99 1006.5
20260903062451 11 106 0.0 0.0 0.00 0.56 0.56 99 1006.3
20260903061439 11 106 0.0 0.0 0.00 0.56 0.56 99 1006.5
20260903060432 11 106 0.0 0.0 0.00 0.56 0.56 99 1006.5
20260903055427 11 106 0.0 0.0 0.00 0.56 0.56 99 1006.6
20260903054412 11 106 0.0 0.0 0.00 0.56 0.56 99 1006.4
20260903053348 11 106 0.0 0.0 0.00 0.56 0.56 99 1006.5
20260903052315 11 106 0.0 0.0 0.00 0.56 0.56 99 1006.6
20260903051313 11 106 0.0 0.0 0.00 0.56 0.56 99 1006.5
20260903050307 11 106 0.0 0.0 0.00 0.56 0.56 99 1006.5
20260903045252 11 106 0.0 0.0 0.00 0.56 0.56 99 1006.4
20260903044234 11 106 0.0 0.0 0.00 0.56 0.56 99 1006.2
20260903043230 11 106 0.0 0.0 0.00 0.56 0.56 98 1006.1
20260903042230 11 106 0.0 0.0 0.00 0.56 0.56 98 1006.2
20260903041200 12 106 0.0 0.0 0.00 0.56 0.56 98 1006.0
20260903040147 12 106 0.0 0.0 0.00 0.56 0.56 98 1006.2
20260903035128 12 106 0.0 0.0 0.00 0.56 0.56 98 1005.9
20260903034115 12 105 0.0 0.0 0.00 0.56 0.56 98 1005.8
20260903033110 12 106 0.0 0.0 0.00 0.56 0.56 98 1005.5
20260903032036 12 106 0.0 0.0 0.00 0.56 0.56 98 1005.5
20260903031026 12 105 0.0 0.0 0.00 0.56 0.56 98 1005.1
20260903030006 13 107 0.0 0.0 0.00 0.56 0.56 98 1005.1
20260903024955 13 107 0.0 0.0 0.00 0.56 0.56 97 1005.2
20260903023949 13 107 0.0 0.0 0.00 0.56 0.56 97 1005.0
20260903022920 13 108 0.0 0.0 0.00 0.56 0.56 96 1004.9
20260903021910 13 108 0.0 0.0 0.00 0.56 0.56 96 1004.8
20260903020843 13 107 0.0 0.0 0.00 0.56 0.56 95 1004.8
20260903015831 14 111 0.0 0.0 0.00 0.56 0.56 95 1004.7
20260903014802 14 107 0.0 0.0 0.00 0.56 0.56 94 1004.7
20260903013723 14 102 0.0 0.0 0.03 0.56 0.56 93 1004.5
20260903012659 14 110 0.0 0.0 0.13 0.56 0.56 93 1004.3
20260903011644 15 108 0.0 0.0 0.13 0.56 0.56 93 1004.1
20260903010621 14 113 0.0 0.0 0.13 0.56 0.56 96 1004.1
20260903005600 13 108 0.0 0.0 0.13 0.56 0.56 96 1003.9
20260903004557 13 101 1.6 1.6 0.13 0.56 0.56 97 1003.9
20260903003534 14 131 1.6 1.6 0.08 0.51 0.51 98 1004.0
20260903002516 15 104 0.0 0.0 0.00 0.43 0.43 98 1003.7
20260903001512 15 107 0.0 0.0 0.00 0.43 0.43 98 1003.0
20260903000501 15 105 0.0 0.0 0.00 0.43 0.43 98 1002.9
20260902235441 15 109 0.0 0.0 0.03 0.43 0.43 98 1002.9
20260902234432 15 109 0.0 0.0 0.05 0.43 0.43 98 1002.9
20260902233424 15 106 0.0 0.0 0.10 0.43 0.43 98 1003.1
20260902232404 15 106 0.0 0.0 0.13 0.43 0.43 98 1003.0
20260902231325 15 105 0.0 0.0 0.18 0.43 0.43 97 1002.7
20260902230309 14 105 0.0 0.0 0.20 0.43 0.43 97 1002.9
20260902225250 15 106 0.0 0.0 0.23 0.41 0.41 97 1003.3
20260902224220 15 105 0.0 0.0 0.25 0.38 0.38 97 1003.3
20260902223203 15 108 0.0 0.0 0.23 0.33 0.33 96 1003.2
20260902222154 15 106 0.0 0.0 0.18 0.28 0.28 96 1003.1
20260902221139 15 105 0.0 0.0 0.18 0.25 0.25 95 1003.0
20260902220111 15 104 0.0 0.0 0.18 0.23 0.23 94 1003.3
20260902215041 15 102 0.0 0.0 0.15 0.18 0.18 92 1003.2
20260902214012 16 107 0.0 0.0 0.10 0.13 0.13 91 1003.4